FW6909 Weather Reports


Display with metric or nautical units.
time (UTC)temp
F
wind
direction
speed
MPH
gust
MPH
rain 1hr
in
rain 24hr
in
rain mn
in
humidity
%
barometer
mb
20260901205531 56 0 0.0 1.0 0.00 0.33 0.33 88 1013.9
20260901205030 56 0 0.0 0.0 0.00 0.33 0.33 88 1013.9
20260901204548 56 0 0.0 0.0 0.00 0.33 0.33 88 1013.9
20260901204031 56 0 0.0 0.0 0.00 0.33 0.33 88 1013.9
20260901203534 56 0 0.0 0.0 0.00 0.33 0.33 88 1013.9
20260901203101 56 0 0.0 0.0 0.00 0.33 0.33 88 1013.9
20260901202529 56 0 0.0 1.0 0.00 0.33 0.33 88 1013.9
20260901202029 56 0 0.0 1.0 0.00 0.33 0.33 87 1013.9
20260901201552 56 0 0.0 1.0 0.00 0.33 0.33 88 1013.9
20260901201031 56 261 0.0 1.0 0.00 0.33 0.33 87 1013.8
20260901200533 56 261 0.0 2.0 0.00 0.33 0.33 87 1013.8
20260901200052 56 276 0.0 2.0 0.00 0.33 0.33 87 1013.9
20260901195531 56 257 0.0 1.0 0.00 0.33 0.33 87 1013.9
20260901195038 56 0 0.0 1.0 0.00 0.33 0.33 87 1013.9
20260901194545 56 266 0.0 1.0 0.00 0.33 0.33 87 1013.8
20260901194032 56 231 0.0 1.0 0.00 0.33 0.33 87 1013.9
20260901193528 57 0 0.0 1.0 0.00 0.33 0.33 87 1013.8
20260901193057 57 0 0.0 1.0 0.00 0.33 0.33 87 1013.8
20260901192533 57 0 0.0 1.0 0.00 0.33 0.33 87 1013.7
20260901192035 57 274 0.0 1.0 0.00 0.33 0.33 87 1013.6
20260901191547 57 0 0.0 1.0 0.00 0.33 0.33 87 1013.6
20260901191031 57 0 0.0 3.0 0.00 0.33 0.33 87 1013.6
20260901190529 57 274 0.0 3.0 0.00 0.33 0.33 87 1013.5
20260901190046 57 254 0.0 1.0 0.00 0.33 0.33 87 1013.6
20260901185531 57 0 0.0 1.0 0.00 0.33 0.33 87 1013.5
20260901185033 57 0 0.0 1.0 0.00 0.33 0.33 87 1013.5
20260901184553 57 0 0.0 1.0 0.00 0.33 0.33 87 1013.5
20260901184029 57 0 0.0 1.0 0.00 0.33 0.33 87 1013.5
20260901183530 57 0 0.0 1.0 0.00 0.33 0.33 87 1013.5
20260901183051 57 0 0.0 2.0 0.00 0.33 0.33 87 1013.4
20260901182531 58 0 0.0 2.0 0.00 0.33 0.33 87 1013.3
20260901182031 58 0 0.0 1.0 0.00 0.33 0.33 87 1013.4
20260901181546 58 0 0.0 1.0 0.00 0.33 0.33 87 1013.4
20260901181033 58 0 0.0 1.0 0.00 0.33 0.33 87 1013.4
20260901180531 58 223 0.0 2.0 0.00 0.33 0.33 88 1013.4
20260901180044 57 267 0.0 2.0 0.00 0.33 0.33 87 1013.4
20260901175529 57 280 0.0 2.0 0.00 0.33 0.33 87 1013.4
20260901175028 58 0 0.0 2.0 0.00 0.33 0.33 87 1013.4
20260901174551 58 265 0.0 1.0 0.00 0.33 0.33 87 1013.3
20260901174031 57 243 0.0 1.0 0.00 0.33 0.33 87 1013.4
20260901173531 58 280 0.0 1.0 0.00 0.33 0.33 87 1013.4
20260901173049 58 272 0.0 1.0 0.00 0.33 0.33 87 1013.3
20260901172533 58 0 0.0 1.0 0.00 0.33 0.33 87 1013.3
20260901172031 58 0 0.0 2.0 0.00 0.33 0.33 87 1013.3
20260901171546 58 235 0.0 4.0 0.00 0.33 0.33 87 1013.2
20260901171032 58 285 1.0 4.0 0.00 0.33 0.33 87 1013.2
20260901170532 58 231 1.0 4.0 0.00 0.33 0.33 87 1013.2
20260901170057 58 290 1.0 3.0 0.00 0.33 0.33 87 1013.2
20260901165530 58 222 0.0 1.0 0.00 0.33 0.33 88 1013.0
20260901165028 58 0 0.0 1.0 0.00 0.33 0.33 87 1013.1
20260901164553 58 341 0.0 1.0 0.00 0.33 0.33 87 1013.2
20260901164028 58 0 0.0 2.0 0.00 0.33 0.33 88 1013.1
20260901163531 58 280 0.0 3.0 0.03 0.33 0.33 87 1013.1
20260901163050 58 295 1.0 3.0 0.03 0.33 0.33 87 1013.0
20260901162530 58 255 1.0 3.0 0.03 0.33 0.33 87 1013.0
20260901162030 58 276 1.0 2.0 0.03 0.33 0.33 87 1012.8
20260901161546 58 300 1.0 2.0 0.03 0.33 0.33 87 1012.9
20260901161031 58 218 0.0 2.0 0.03 0.33 0.33 87 1012.8
20260901160530 58 281 1.0 4.0 0.04 0.33 0.33 87 1012.9
20260901160055 58 264 1.0 4.0 0.07 0.33 0.33 87 1012.9
20260901155531 58 336 2.0 4.0 0.07 0.33 0.33 87 1012.8
20260901155028 58 314 0.0 5.0 0.07 0.32 0.32 87 1012.7
20260901154553 58 269 0.0 5.0 0.09 0.32 0.32 87 1012.7
20260901154031 58 295 2.0 5.0 0.09 0.32 0.32 87 1012.9
20260901153531 58 257 1.0 4.0 0.07 0.29 0.29 87 1012.9
20260901153104 58 321 1.0 4.0 0.07 0.29 0.29 87 1012.6
20260901152528 58 255 1.0 4.0 0.07 0.29 0.29 87 1012.5
20260901152030 58 269 1.0 4.0 0.07 0.29 0.29 86 1012.4
20260901151551 58 289 1.0 4.0 0.07 0.29 0.29 86 1012.5
20260901151031 58 244 1.0 4.0 0.07 0.29 0.29 86 1012.6
20260901150531 59 265 1.0 5.0 0.06 0.27 0.27 86 1012.5
20260901150049 59 246 2.0 8.0 0.04 0.25 0.25 86 1012.6
20260901145531 59 309 3.0 8.0 0.03 0.25 0.25 85 1012.5
20260901145030 60 269 2.0 7.0 0.03 0.24 0.24 85 1012.5
20260901144544 60 311 2.0 7.0 0.01 0.22 0.22 85 1012.3
20260901144030 61 288 2.0 7.0 0.01 0.22 0.22 85 1012.1
20260901143529 61 276 1.0 5.0 0.00 0.22 0.22 86 1012.0
20260901143055 61 232 2.0 5.0 0.00 0.22 0.22 86 1012.0
20260901142532 61 305 1.0 4.0 0.00 0.22 0.22 86 1012.1
20260901142028 61 307 1.0 5.0 0.00 0.22 0.22 86 1012.1
20260901141559 61 255 2.0 5.0 0.00 0.22 0.22 85 1012.1
20260901141031 61 358 1.0 4.0 0.00 0.22 0.22 85 1012.1
20260901140531 61 266 0.0 6.0 0.00 0.21 0.21 85 1012.0
20260901140058 61 333 1.0 6.0 0.00 0.21 0.21 85 1012.1
20260901135534 61 283 1.0 4.0 0.00 0.21 0.21 86 1012.1
20260901135032 61 233 1.0 3.0 0.00 0.21 0.21 86 1012.0
20260901134545 61 262 1.0 4.0 0.00 0.21 0.21 86 1011.9
20260901134037 61 298 1.0 4.0 0.00 0.21 0.21 86 1011.8
20260901133533 61 321 1.0 4.0 0.00 0.21 0.21 86 1011.6
20260901133044 61 136 1.0 6.0 0.01 0.21 0.21 86 1011.6
20260901132532 61 65 1.0 6.0 0.01 0.21 0.21 86 1011.7
20260901132032 61 253 1.0 6.0 0.01 0.21 0.21 86 1011.7
20260901131554 60 269 1.0 4.0 0.02 0.21 0.21 87 1011.8
20260901131033 60 255 1.0 5.0 0.02 0.21 0.21 86 1011.7
20260901130531 60 278 2.0 5.0 0.02 0.21 0.21 86 1011.7
20260901130047 60 302 1.0 4.0 0.02 0.21 0.21 86 1011.6
20260901125533 60 253 1.0 4.0 0.03 0.21 0.21 86 1011.7
20260901125031 60 304 2.0 4.0 0.03 0.21 0.21 86 1011.8
20260901124544 60 283 1.0 5.0 0.03 0.21 0.21 86 1011.7
20260901124031 60 322 2.0 5.0 0.02 0.20 0.20 86 1011.8
20260901123532 60 273 2.0 6.0 0.02 0.20 0.20 86 1011.7
20260901123101 60 291 2.0 6.0 0.01 0.19 0.19 86 1011.6
20260901122531 60 236 2.0 4.0 0.01 0.19 0.19 85 1011.6
20260901122031 60 271 1.0 5.0 0.00 0.18 0.18 85 1011.9
20260901121550 61 276 2.0 5.0 0.00 0.18 0.18 85 1011.7
20260901121031 61 285 2.0 8.0 0.00 0.18 0.18 85 1011.7
20260901120531 61 295 2.0 8.0 0.00 0.18 0.18 85 1011.6
20260901120051 61 254 2.0 6.0 0.00 0.18 0.18 85 1011.5
20260901115533 61 135 2.0 6.0 0.00 0.18 0.18 85 1011.6
20260901115031 61 288 1.0 6.0 0.00 0.18 0.18 86 1011.5
20260901114555 61 307 1.0 7.0 0.00 0.18 0.18 86 1011.5
20260901114033 61 271 2.0 7.0 0.00 0.18 0.18 86 1011.6
20260901113532 61 271 2.0 7.0 0.00 0.18 0.18 86 1011.6
20260901113043 61 289 2.0 8.0 0.00 0.18 0.18 87 1011.5
20260901112534 60 96 2.0 8.0 0.00 0.18 0.18 87 1011.3
20260901112032 60 245 2.0 8.0 0.00 0.18 0.18 87 1011.4
20260901111553 60 249 1.0 5.0 0.00 0.18 0.18 87 1011.3
20260901111031 60 279 2.0 6.0 0.01 0.18 0.18 87 1011.3
20260901110530 60 220 1.0 6.0 0.01 0.18 0.18 87 1011.4
20260901110052 60 243 2.0 6.0 0.02 0.18 0.18 87 1011.3
20260901105549 60 217 1.0 5.0 0.03 0.18 0.18 87 1011.4
20260901105033 60 61 1.0 4.0 0.03 0.18 0.18 87 1011.3
20260901104545 60 285 1.0 4.0 0.03 0.18 0.18 88 1011.2
20260901104032 60 282 1.0 4.0 0.03 0.18 0.18 88 1011.4
20260901103531 59 242 1.0 4.0 0.03 0.17 0.17 88 1011.4
20260901103051 59 297 1.0 4.0 0.03 0.17 0.17 88 1011.5
20260901102531 59 187 1.0 4.0 0.03 0.17 0.17 88 1011.5
20260901102031 58 209 1.0 4.0 0.03 0.17 0.17 87 1011.4
20260901101551 58 0 0.0 5.0 0.03 0.16 0.16 87 1011.6
20260901101031 58 244 1.0 5.0 0.03 0.16 0.16 87 1011.5
20260901100531 58 281 1.0 4.0 0.03 0.16 0.16 87 1011.5
20260901100046 58 239 1.0 4.0 0.03 0.15 0.15 87 1011.6
20260901095531 58 229 1.0 3.0 0.03 0.14 0.14 87 1011.6
20260901095031 58 271 1.0 5.0 0.04 0.14 0.14 87 1011.6
20260901094549 58 4 1.0 5.0 0.04 0.14 0.14 87 1011.5
20260901094030 58 307 1.0 3.0 0.04 0.14 0.14 87 1011.6
20260901093535 58 312 1.0 3.0 0.05 0.14 0.14 87 1011.5
20260901093047 58 276 0.0 3.0 0.05 0.14 0.14 87 1011.6
20260901092532 58 238 1.0 5.0 0.05 0.14 0.14 87 1011.4
20260901092032 58 288 1.0 5.0 0.06 0.14 0.14 87 1011.5
20260901091545 58 276 1.0 4.0 0.05 0.13 0.13 87 1011.5
20260901091033 58 297 0.0 5.0 0.05 0.13 0.13 87 1011.7
20260901090532 57 360 1.0 5.0 0.06 0.13 0.13 87 1011.7
20260901090044 57 207 1.0 5.0 0.05 0.12 0.12 87 1011.5
20260901085531 58 278 0.0 5.0 0.06 0.11 0.11 87 1011.7
20260901085031 58 82 0.0 6.0 0.04 0.10 0.10 87 1011.7
20260901084549 58 349 1.0 6.0 0.05 0.10 0.10 87 1011.8
20260901084033 58 65 1.0 4.0 0.04 0.09 0.09 87 1011.9
20260901083531 58 285 1.0 4.0 0.03 0.08 0.08 87 1011.7
20260901083046 58 39 1.0 2.0 0.03 0.08 0.08 87 1011.6
20260901082530 58 84 0.0 3.0 0.04 0.08 0.08 87 1011.6
20260901082032 57 178 1.0 4.0 0.04 0.07 0.07 87 1011.7
20260901081547 57 141 1.0 4.0 0.04 0.07 0.07 86 1011.7
20260901081032 57 176 0.0 3.0 0.04 0.07 0.07 86 1011.7
20260901080531 57 346 0.0 4.0 0.05 0.07 0.07 86 1011.8
20260901080048 57 323 1.0 4.0 0.05 0.07 0.07 86 1011.7
20260901075532 57 327 1.0 4.0 0.03 0.05 0.05 86 1011.6
20260901075028 57 253 0.0 3.0 0.04 0.05 0.05 86 1011.8
20260901074554 57 0 0.0 4.0 0.03 0.04 0.04 86 1011.8
20260901074033 57 85 0.0 4.0 0.03 0.04 0.04 86 1011.7
20260901073531 57 127 1.0 4.0 0.04 0.04 0.04 86 1011.7
20260901073052 57 338 0.0 3.0 0.04 0.04 0.04 86 1011.6
20260901072535 57 299 0.0 5.0 0.03 0.03 0.03 86 1011.7
20260901072031 57 115 1.0 5.0 0.03 0.03 0.03 86 1011.8
20260901071558 57 23 1.0 5.0 0.03 0.03 0.03 86 1011.9
20260901071033 57 254 0.0 3.0 0.02 0.02 0.02 86 1012.0
20260901070533 57 214 1.0 3.0 0.01 0.01 0.01 85 1012.0
20260901070046 57 284 1.0 3.0 0.01 0.01 0.01 85 1012.1
20260901065531 57 113 1.0 3.0 0.01 0.02 0.01 85 1012.1
20260901065034 57 269 0.0 3.0 0.00 0.01 0.00 85 1012.0
20260901064554 57 203 1.0 4.0 0.00 0.01 0.00 85 1012.1
20260901064031 57 297 1.0 4.0 0.00 0.01 0.00 85 1011.9
20260901063534 57 252 1.0 4.0 0.00 0.00 0.00 84 1011.8
20260901063046 57 341 1.0 4.0 0.00 0.00 0.00 84 1011.8
20260901062531 57 127 0.0 2.0 0.00 0.00 0.00 84 1011.9
20260901062035 57 65 0.0 3.0 0.00 0.00 0.00 84 1011.9
20260901061548 57 342 0.0 3.0 0.00 0.00 0.00 84 1011.8
20260901061031 57 276 0.0 2.0 0.00 0.00 0.00 84 1012.0
20260901060535 57 328 0.0 2.0 0.00 0.00 0.00 84 1012.0
20260901060052 57 0 0.0 2.0 0.00 0.00 0.00 84 1012.1
20260901055531 57 349 0.0 2.0 0.00 0.00 0.00 84 1012.1
20260901055031 57 39 0.0 2.0 0.00 0.00 0.00 84 1011.9
20260901054547 57 266 0.0 2.0 0.00 0.00 0.00 84 1012.0
20260901054031 57 346 0.0 2.0 0.00 0.00 0.00 84 1012.1
20260901053533 57 0 0.0 2.0 0.00 0.00 0.00 84 1012.1
20260901053046 57 106 0.0 3.0 0.00 0.00 0.00 84 1012.3
20260901052533 57 218 0.0 3.0 0.00 0.00 0.00 84 1012.3
20260901052031 57 291 0.0 3.0 0.00 0.00 0.00 84 1012.3
20260901051553 57 48 1.0 3.0 0.00 0.00 0.00 84 1012.5
20260901051031 57 0 0.0 2.0 0.00 0.00 0.00 84 1012.8
20260901050530 57 0 0.0 3.0 0.00 0.00 0.00 84 1012.7
20260901050048 57 344 0.0 3.0 0.00 0.00 0.00 84 1012.8
20260901045531 57 274 0.0 3.0 0.00 0.00 0.00 84 1012.7
20260901045031 57 250 0.0 3.0 0.00 0.00 0.00 84 1012.5
20260901044621 57 272 0.0 2.0 0.00 0.00 0.00 84 1012.7
20260901044031 57 293 0.0 3.0 0.00 0.00 0.00 84 1012.6
20260901043532 57 295 0.0 3.0 0.00 0.00 0.00 83 1012.4
20260901043046 57 288 0.0 3.0 0.00 0.00 0.00 83 1012.5
20260901042532 57 101 1.0 3.0 0.00 0.00 0.00 83 1012.6
20260901042033 57 271 0.0 3.0 0.00 0.00 0.00 83 1012.6
20260901041605 57 290 1.0 3.0 0.00 0.00 0.00 83 1012.6
20260901041032 57 232 1.0 3.0 0.00 0.00 0.00 83 1012.5
20260901040532 57 0 1.0 4.0 0.00 0.00 0.00 83 1012.6
20260901040059 57 51 0.0 4.0 0.00 0.00 0.00 84 1012.6
20260901035533 57 276 0.0 3.0 0.00 0.00 0.00 84 1012.7
20260901035031 57 226 0.0 2.0 0.00 0.00 0.00 84 1012.9
20260901034547 57 51 0.0 4.0 0.00 0.00 0.00 84 1012.8
20260901034034 57 340 0.0 4.0 0.00 0.00 0.00 84 1012.7
20260901033530 57 300 0.0 2.0 0.00 0.00 0.00 84 1012.8
20260901033044 57 273 0.0 2.0 0.00 0.00 0.00 84 1012.7
20260901032531 57 294 1.0 2.0 0.00 0.00 0.00 84 1012.8
20260901032035 57 300 0.0 2.0 0.00 0.00 0.00 84 1013.1
20260901031544 57 261 0.0 3.0 0.00 0.00 0.00 84 1012.9
20260901031036 57 108 0.0 3.0 0.00 0.00 0.00 84 1013.1
20260901030536 57 267 0.0 3.0 0.00 0.00 0.00 84 1013.1
20260901030050 57 276 0.0 3.0 0.00 0.00 0.00 84 1013.0
20260901025530 57 59 1.0 3.0 0.00 0.00 0.00 84 1013.1
20260901025034 56 262 0.0 2.0 0.00 0.00 0.00 84 1013.1
20260901024550 56 271 0.0 3.0 0.00 0.00 0.00 84 1013.0
20260901024032 56 284 0.0 3.0 0.00 0.00 0.00 84 1013.1
20260901023531 56 300 1.0 4.0 0.00 0.00 0.00 84 1013.0
20260901023046 56 255 0.0 4.0 0.00 0.00 0.00 84 1013.1
20260901022531 56 262 0.0 2.0 0.00 0.00 0.00 83 1013.2
20260901022031 56 223 0.0 3.0 0.00 0.00 0.00 83 1013.3
20260901021550 56 224 0.0 3.0 0.00 0.00 0.00 83 1013.2
20260901021030 56 342 0.0 2.0 0.00 0.00 0.00 83 1013.4
20260901020532 56 0 0.0 2.0 0.00 0.00 0.00 83 1013.4
20260901020045 56 79 0.0 2.0 0.00 0.00 0.00 83 1013.4
20260901015533 56 154 0.0 1.0 0.00 0.00 0.00 83 1013.5
20260901015028 56 1 0.0 2.0 0.00 0.00 0.00 83 1013.4
20260901014545 56 12 0.0 2.0 0.00 0.00 0.00 83 1013.4
20260901014028 56 266 0.0 2.0 0.00 0.00 0.00 83 1013.4
20260901013532 56 250 0.0 1.0 0.00 0.00 0.00 83 1013.3
20260901013052 57 104 0.0 3.0 0.00 0.00 0.00 83 1013.3
20260901012530 56 0 0.0 3.0 0.00 0.00 0.00 83 1013.4
20260901012031 56 298 0.0 2.0 0.00 0.00 0.00 83 1013.6
20260901011545 56 312 0.0 2.0 0.00 0.00 0.00 83 1013.5
20260901011031 56 328 0.0 2.0 0.00 0.00 0.00 83 1013.6
20260901010532 56 220 0.0 1.0 0.00 0.00 0.00 83 1013.5
20260901010050 56 270 0.0 2.0 0.00 0.00 0.00 83 1013.5
20260901005531 56 121 0.0 2.0 0.00 0.00 0.00 83 1013.6
20260901005030 56 0 0.0 2.0 0.00 0.00 0.00 83 1013.7
20260901004555 56 0 0.0 1.0 0.00 0.00 0.00 83 1013.6
20260901004031 56 265 0.0 1.0 0.00 0.00 0.00 83 1013.7
20260901003534 56 93 0.0 1.0 0.00 0.00 0.00 83 1013.7
20260901003048 56 304 0.0 1.0 0.00 0.00 0.00 83 1013.7
20260901002531 55 0 0.0 1.0 0.00 0.00 0.00 83 1013.8
20260901002031 55 88 0.0 1.0 0.00 0.00 0.00 83 1013.8
20260901001544 55 309 0.0 1.0 0.00 0.00 0.00 82 1013.8
20260901001031 55 0 0.0 1.0 0.00 0.00 0.00 82 1013.8
20260901000531 55 280 0.0 1.0 0.00 0.00 0.00 82 1013.9
20260901000059 55 0 0.0 1.0 0.00 0.00 0.00 82 1014.0
20260831235534 55 0 0.0 1.0 0.00 0.00 0.00 82 1014.1
20260831235031 55 263 0.0 1.0 0.00 0.00 0.00 82 1014.0
20260831234550 55 257 0.0 1.0 0.00 0.00 0.00 82 1014.1
20260831234030 55 0 0.0 1.0 0.00 0.00 0.00 82 1014.2
20260831233530 55 82 0.0 1.0 0.00 0.00 0.00 82 1014.1
20260831233047 55 0 0.0 1.0 0.00 0.00 0.00 82 1014.2
20260831232532 55 0 0.0 1.0 0.00 0.00 0.00 82 1014.3
20260831232032 55 280 0.0 2.0 0.00 0.00 0.00 82 1014.4
20260831231548 55 0 0.0 2.0 0.00 0.00 0.00 81 1014.5
20260831231030 55 347 0.0 1.0 0.00 0.00 0.00 81 1014.5
20260831230530 55 0 0.0 1.0 0.00 0.00 0.00 81 1014.5
20260831230050 55 312 0.0 0.0 0.00 0.00 0.00 81 1014.5
20260831225528 55 0 0.0 2.0 0.00 0.00 0.00 81 1014.6
20260831225032 55 0 0.0 2.0 0.00 0.00 0.00 81 1014.7
20260831224546 55 219 0.0 1.0 0.00 0.00 0.00 81 1014.5
20260831224030 55 0 0.0 1.0 0.00 0.00 0.00 82 1014.6
20260831223529 55 0 0.0 1.0 0.00 0.00 0.00 82 1014.6
20260831223055 55 0 0.0 1.0 0.00 0.00 0.00 82 1014.6
20260831222529 55 0 0.0 1.0 0.00 0.00 0.00 82 1014.6
20260831222030 55 0 0.0 1.0 0.00 0.00 0.00 82 1014.6
20260831221547 55 0 0.0 1.0 0.00 0.00 0.00 82 1014.7
20260831221030 54 0 0.0 1.0 0.00 0.00 0.00 82 1014.6
20260831220533 54 0 0.0 0.0 0.00 0.00 0.00 82 1014.6
20260831220045 54 0 0.0 1.0 0.00 0.00 0.00 82 1014.6
20260831215531 54 0 0.0 1.0 0.00 0.00 0.00 82 1014.8
20260831215032 54 0 0.0 1.0 0.00 0.00 0.00 82 1014.7
20260831214610 54 0 0.0 0.0 0.00 0.00 0.00 82 1014.8
20260831214035 54 0 0.0 0.0 0.00 0.00 0.00 81 1014.8
20260831213531 54 0 0.0 1.0 0.00 0.00 0.00 81 1014.9
20260831213058 54 0 0.0 1.0 0.00 0.00 0.00 81 1014.9
20260831212531 54 0 0.0 1.0 0.00 0.00 0.00 81 1014.8
20260831212030 54 0 0.0 1.0 0.00 0.00 0.00 81 1014.7
20260831211552 54 0 0.0 1.0 0.00 0.00 0.00 80 1014.9
20260831211029 54 0 0.0 1.0 0.00 0.00 0.00 80 1014.8
20260831210530 54 255 0.0 1.0 0.00 0.00 0.00 80 1014.6
20260831210046 55 0 0.0 1.0 0.00 0.00 0.00 79 1014.7